This is the latest recevied weather packets stored in our database for station/object 9M4RBN-3. If no packets are shown the sender has not sent any weather packets the latest 10 day(s).
| Time | Temp. | Humidity | Pressure | Rain* | Wind** | Luminosity | Snow |
|---|---|---|---|---|---|---|---|
| 1777677692 | 25.56° C | 71% | 1014.7 hPa | - | - | - | - |
| 1777676792 | 25° C | 69% | 1014.4 hPa | - | - | - | - |
| 1777675892 | 24.44° C | 62% | 1014 hPa | - | - | - | - |
| 1777674992 | 25° C | 49% | 1013.8 hPa | - | - | - | - |
| 1777674093 | 25.56° C | 56% | 1013.8 hPa | - | - | - | - |
| 1777673192 | 25.56° C | 71% | 1013.7 hPa | - | - | - | - |
| 1777672292 | 25.56° C | 69% | 1013.7 hPa | - | - | - | - |
| 1777671392 | 25° C | 64% | 1013.8 hPa | - | - | - | - |
| 1777670492 | 24.44° C | 47% | 1013.7 hPa | - | - | - | - |
| 1777669679 | 25° C | 48% | 1013.7 hPa | - | - | - | - |
| 1777669592 | 25° C | 48% | 1013.7 hPa | - | - | - | - |
| 1777668692 | 25.56° C | 48% | 1013.7 hPa | - | - | - | - |
| 1777667792 | 26.11° C | 51% | 1013.6 hPa | - | - | - | - |
| 1777666891 | 26.67° C | 62% | 1013.8 hPa | - | - | - | - |
| 1777665991 | 27.22° C | 72% | 1013.9 hPa | - | - | - | - |
| 1777665092 | 27.22° C | 72% | 1014.2 hPa | - | - | - | - |
| 1777664191 | 27.22° C | 71% | 1014.3 hPa | - | - | - | - |
| 1777663341 | 27.22° C | 71% | 1014.4 hPa | - | - | - | - |
| 1777663291 | 27.22° C | 71% | 1014.4 hPa | - | - | - | - |
| 1777662391 | 27.22° C | 70% | 1014.6 hPa | - | - | - | - |
| 1777661491 | 27.22° C | 70% | 1014.7 hPa | - | - | - | - |
| 1777660591 | 27.22° C | 70% | 1015 hPa | - | - | - | - |
| 1777659691 | 27.22° C | 70% | 1015 hPa | - | - | - | - |
| 1777658791 | 26.67° C | 69% | 1015.1 hPa | - | - | - | - |
| 1777657891 | 26.67° C | 68% | 1015.3 hPa | - | - | - | - |
* Rain since midnight (hover to see other rain measurements)
** Current wind speed in m/s (hover to see current wind gust speed)